Погода в Горки

Погода в Горки : погода сейчас, прогноз погоды и архив. Всё, что Вы хотите узнать о погоде в Горки!

Хотите узнать прогноз погоды в Горки? Тогда Вам сюда: Погода в Горки

Поиск расширенной информации на нашем сайте:

Другие новости

Новости СМИ2

Главная страница сайта

Новости сайта

03.07.2017

Напоминаем, что на нашем специализированном сайте Метеоцентр.Азия вы можете получить высокодетализированные автоматические прогнозы погоды по пунктам России, СНГ и мира в авиационном формате (включающие направление и скорость ветра, видимость, явления погоды, количество и форму облачности, нижнюю и верхнюю границу облачности).


Погода в Горки - сегодня

Время (UTC), дата Ветер
(°,м/с) 
Видим.   Явления Облачность Т
(°С)
Тd
(°С)
f(%) Тe
(°С)
Pmin
(гПа)
dP
(гПа)
Po
(мм)
O2
(г/м3)
Тmin Tmax R s Состояние
почвы
18 10.11.18 130 (ЮВ) 7000 м  дымка{туман}  10/10 120 м 
[St]
+1.8 +1.5 98 -1  1026.6  1.1  751  300    +1.9       
00 11.11.18 110 (В) 6{10}  13000 м    10/10 270 м 
[Frnb]
+1.5 +0.6 94 -2  1028.9  1.1  753  301           
06 11.11.18 120 (ЮВ) 8-10{11}  13000 м    10/10 360 м 
[Frnb]
+0.9 -0.7 89 -3  1031.8  1.5  755  303  +0.8         
12 11.11.18 140 (ЮВ) 7-11{12}  15000 м    10/10 600 м 
[Sc]
+2.3 +0.3 87 -1  1034.1  0.8  757  302           
18 11.11.18 130 (ЮВ) 8-12{15}  19000 м  {дождь}  10/10 800 м 
[Sc]
+0 -2.7 82 -4  1036.4  0.9  758  306    +2.5  0.2     
00 12.11.18 130 (ЮВ) 8-12{13}  19000 м    10/10 630 м 
[Sc]
-0.2 -3.3 80 -4  1036.9  758  306           
03 12.11.18 140 (ЮВ) 8-12{12}  15000 м    10/10 500 м 
[Sc]
-0.9 -3.2 84 -5  1037.2  0.2  759  307           
06 12.11.18 130 (ЮВ) 8-11{12}  15000 м    10/10 500 м 
[Sc]
-1.7 -4.3 82 -6  1038.2  0.9  759  308  -1.7         
12 12.11.18 130 (ЮВ) 7-10{12}  15000 м    10/10 570 м 
[Sc]
-1.6 -4.8 79 -6  1038.5  0.1  759  308           
18 12.11.18 140 (ЮВ) 8-12{12}  18000 м    10/10 630 м 
[Sc]
-2.6 -5.8 79 -7  1038.3  -0.5  759  310    -1.3       
00 13.11.18 160 (Ю) 7-11{11}  20000 м    6/6 600 м 
[Sc]
-2.8 -5.5 82 -7  1038.8  -0.3  760  310           
03 13.11.18 160 (Ю) 7-10{12}  17000 м    6/6 600 м 
[Sc]
-3.7 -5.9 85 -8  1037.8  -1.1  759  311           
06 13.11.18 160 (Ю) 7-10{11}  19000 м    8/0 средняя, верхняя 
[Ac und|Ci fib]
-3.9 -6.3 83 -9  1037.2  -0.6  758  311  -4         
12 13.11.18 170 (Ю) 8-11{11}  20000 м    9/0 средняя 
[Ac und]
+0.2 -6 63 -4  1034  -1.9  756  305           
18 13.11.18 170 (Ю) 8-11{12}  18000 м    10/8 570 м средняя 
[Sc|Ac As]
-0.9 -6.1 68 -5  1030.5  -2  754  305    +0.4       
00 14.11.18 170 (Ю) 6{12}  18000 м    10/6 600 м средняя 
[Sc|Ac As]
-1.7 -6.4 70 -5  1026.2  -2.3  750  305           
06 14.11.18 160 (Ю) 7{11}  18000 м  {дождь}  10/10 600 м 
[Sc]
-1.8 -6.2 72 -6  1022.5  -1.3  748  304  -1.8    0.0     
12 14.11.18 150 (ЮВ) 4200 м  слаб. снег  10/10 400 м 
[Frnb|Ns]
-2.8 -3.9 92 -6  1021.9  -0.4  747  305           
18 14.11.18 130 (ЮВ) 12000 м  в посл. час снег  10/10 360 м 
[Frnb|Ns]
-2.7 -3.8 92 -5  1023.8  0.9  749  305    -1.7   
21 14.11.18 100 (В) 10 км    10/8 630 м средняя 
[Sc|Ac As]
-2.5 -3.5 93 -4  1025.1  1.3  750  305           
00 15.11.18 060 (СВ) 8000 м  дымка  10/10 330 м 
[Frnb]
-2.3 -3 95 -3  1026.5  1.4  751  305           
03 15.11.18 080 (В) 7000 м  дымка  10/10 270 м 
[Frnb]
-1.8 -2.6 94 -4  1028.1  1.6  752  305         
06 15.11.18 070 (В) 3600 м  дымка  10/10 210 м 
[Frnb]
-1.3 -1.6 98 -2  1030.6  2.5  754  305  -2.7      равномерный
сухой снег
100% 
12 15.11.18 070 (В) 7000 м  дымка  10/10 360 м 
[Frnb]
+0.6 -0.8 90 1034.5  1.9  757  304           
18 15.11.18 130 (ЮВ) 8000 м  дымка  10/10 360 м 
[Frnb]
+0.2 -0.8 93 -2  1037.9  1.4  759  306    +0.6     
Время (UTC), дата Ветер
(°,м/с) 
Видим.   Явления Облачность Т
(°С)
Тd
(°С)
f(%) Тe
(°С)
Pmin
(гПа)
dP
(гПа)
Po
(мм)
O2
(г/м3)
Тmin Tmax R s Состояние
почвы

Для получения пояснительной информации подведите курсор к названию столбца.

ПОГОДА в Горки - архив

Всё, что Вы хотите узнать о погоде в Горки - удобно и подробно!

Выберите нужную дату (начиная с 1 января 2015* года) и нажмите кнопку "Найти".
Будут отображены архивные сводки погоды по пункту Горки, начиная с указанной даты.


Отображать данные в формате CSV (для использования в таблицах Excel)


Внимание! Наш архив погоды предназначен исключительно для личного некоммерческого использования в познавательных целях. Если Вам необходимы официальные справки о состоянии погоды (для производственных, юридических, коммерческих и т.п. целей), обращайтесь в органы Росгидромета.

*Примечание: данная дата относится к архиву по метеостанциям СССР (Россия, СНГ, Балтия).
Архив по метеостанциям Зарубежной Европы и Азии (кроме Китая) хранится 10 дней, по другим регионам земного шара (Китай, Африка, Америка, Австралия, Океания) - 1 день.

Горки - район местоположения метеостанции


Название, широта, долгота, высота метеостанции:
Горки 54.3°ш. 30.9°д. 205 м над ур. моря [Беларусь]

Дополнительная информация

В oтличие oт бoльшинства пoгoдных сайтoв мы публикуем пoдрoбную метеoинфoрмацию в детальнoм прoфессиoнальнoм фoрмате.

Характеристики температуры и влажнoсти вoздуха измеряются на высoте 2 м в тени вдали oт зданий и деревьев.
Скoрoсть ветра измеряется на высoте 10 м (на урoвне рoста челoвека скoрoсть ветра ниже в 1.5-2 раза). Если метеoстанция нахoдится в гoрoде или в лесу, тo скoрoсть ветра занижена на 2-4 м/с пo сравнению с oткрытым местoм. Скoрoсть ветра над акватoриями крупных рек и oзёр, а также на вершинах хoлмoв на 2-5 м/с выше, чем в oбычных услoвиях.
Атмoсфернoе давление в разных тoчках местнoсти мoжет значительнo oтличаться oт давления на метеoстанции, в зависимoсти oт услoвий рельефа (при пoдъёме на 10 м давление пoнижается примернo на 1 мм рт.ст.).